Location: *
(50.5492°N, 7.7469°E)
Time: 07:04:55
(UTC+00:00)

STARLINK-49 - Pass Details

Date: 21 October 2019
Orbit: 549 x 551 km, 53.0° (Epoch: 18 November)

Event Time Altitude Azimuth Distance (km) Brightness Sun altitude
Rises 17:54:08 0° 276° (W) 2,718 9.1 -14.7°
Reaches altitude 10° 17:56:23 10° 280° (W) 1,825 7.6 -15.1°
Maximum altitude 18:00:30 60° 1° (N) 632 3.9 -15.7°
Enters shadow 18:02:23 30° 71° (ENE) 1,014 4.4 -16.0°
